Flag for Portugal Weather past 2 weeks in Guimarães, Portugal

Now
68 °F

Mild.


Feels Like: 68 °F
Forecast: 58 / 84 °F
Wind: 2 mph from East

Location: Porto / Pedras Rubras

Current Time: Oct 21, 2014 at 12:37:39 AM

Latest Report: Oct 20, 2014 at 11:00 PM


Visibility: N/A

Pressure: 30.18 "Hg

Humidity: 80%

Dew point: 62 °F

Location of GuimarãesLocation

Historic Weather in Guimarães — Graph

°F

Guimarães temperature yesterday

Maximum temperature yesterday: 85 °F (at 3:00 PM)
Minimum temperature yesterday: 67 °F (at 8:00 AM)
Average temperature yesterday: 73 °F

Past Weeks' High & Low Weather Summary

 TemperatureHumidityPressure
High85 °F (Oct 20, 3:00 PM)94% (Oct 8, 5:00 AM)30.18 "Hg (Oct 8, 5:00 AM)
Low52 °F (Oct 14, 7:00 AM)42% (Oct 19, 4:00 PM)29.57 "Hg (Oct 12, 6:00 AM)
Average65 °F81%29.88 "Hg
* Reported Oct 5 11:00 PM — Oct 20 11:00 PM, Guimarães, Weather by CustomWeather, © 2014

Note: Actual official high and low records may vary slightly from our data, if they occured in-between our weather recording intervals... More about our weather records

Advertising

Guimarães weather history for previous 24 hours

 ConditionsComfort  
Time TempWeatherWind HumidityBarometerVisibility
11:00 PM
Oct 20
68 °FMild.2 mph80%30.18 "HgN/A
10:00 PM70 °FMild.2 mph78%30.16 "HgN/A
9:00 PM72 °FMild.3 mph77%30.14 "HgN/A
8:00 PM76 °FMild.1 mph67%30.13 "HgN/A
7:00 PM73 °FMild.2 mph71%30.11 "HgN/A
6:00 PM77 °FWarm.2 mph62%30.10 "HgN/A
5:00 PM79 °FWarm.2 mph60%30.10 "HgN/A
4:00 PM78 °FWarm.3 mph55%30.10 "HgN/A
3:00 PM85 °FWarm.1 mph42%30.10 "HgN/A
2:00 PM82 °FWarm.2 mph50%30.11 "HgN/A
1:00 PM82 °FWarm.2 mph43%30.12 "HgN/A
12:00 PM79 °FWarm.7 mph48%30.11 "HgN/A
11:00 AM75 °FMild.6 mph55%30.12 "HgN/A
10:00 AM72 °FMild.6 mph59%30.11 "HgN/A
9:00 AM67 °FMild.6 mph64%30.10 "HgN/A
8:00 AM67 °FMild.5 mph64%30.08 "HgN/A
7:00 AM67 °FMild.6 mph65%30.06 "HgN/A
6:00 AM67 °FMild.6 mph64%30.05 "HgN/A
4:00 AM67 °FMild.6 mph68%30.05 "HgN/A
3:00 AM68 °FMild.5 mph67%30.05 "HgN/A
2:00 AM69 °FMild.5 mph65%30.05 "HgN/A
1:00 AM69 °FMild.5 mph66%30.05 "HgN/A
12:00 AM71 °FMild.5 mph63%30.05 "HgN/A
Weather by CustomWeather, © 2014

See weather overviewHow to use our weather pages